CAPE
34 31 28 29 33 33 42 40 40 10 0 0 6 21 5 2 6 3 0 0 0 0 0 0 0 0 0 0 0 0 0 0 0 0 0 0 0 0 0 0 0 0 0 0 0 0 0 1 28 3 0 0 0 0
36 42 38 30 30 37 42 42 40 35 4 0 0 7 8 7 8 3 0 0 0 0 0 0 0 0 0 0 0 0 0 0 0 0 0 0 0 0 0 0 0 0 0 0 0 0 0 0 1 0 2 0 0 692
35 44 52 47 51 43 40 45 48 41 44 0 0 8 9 9 12 11 0 0 0 0 0 0 0 0 0 0 0 0 0 0 0 0 0 0 0 0 0 0 0 0 0 0 3 1 0 0 0 0 28 800 1093 1056
38 44 51 36 30 35 43 44 45 36 38 24 0 11 14 12 12 12 0 0 0 0 0 0 0 0 0 0 0 0 0 0 0 0 0 0 0 0 0 0 0 0 0 8 36 81 101 79 1 304 1069 930 998 1040
46 46 39 33 31 36 47 47 52 44 45 37 31 26 19 13 22 2 0 0 0 0 0 0 0 0 0 0 0 0 0 0 0 0 0 0 0 0 0 0 16 0 45 126 172 106 15 60 0 569 1086 789 884 783
50 39 46 53 49 49 49 47 66 65 54 58 33 24 18 12 11 0 0 0 0 0 0 1 0 0 0 0 0 0 0 0 0 0 0 0 0 0 1 143 38 0 0 0 226 1 0 0 93 924 940 825 595 419
44 38 54 56 32 51 50 57 66 46 32 24 16 3 15 23 0 0 0 2 0 0 0 13 12 17 75 10 0 0 0 0 0 0 0 0 0 0 0 148 17 0 0 10 0 1 54 180 737 455 504 430 193 46
33 47 69 52 64 59 40 34 25 11 1 0 0 10 15 6 3 0 0 0 0 0 0 19 19 19 17 35 18 0 0 0 0 0 0 0 0 0 0 0 0 0 2 76 0 0 43 100 40 64 50 1 0 0
49 62 59 55 50 21 14 11 13 20 11 8 15 5 0 0 0 0 0 5 1 0 3 6 51 47 42 28 12 0 0 0 0 0 0 0 0 0 35 14 0 1 170 328 119 116 103 56 31 4 0 0 0 0
35 43 35 33 37 53 44 41 48 51 37 20 0 0 0 0 1 6 46 46 5 0 0 0 0 34 9 21 9 1 0 0 0 0 0 0 0 0 0 22 0 51 324 238 192 152 39 17 0 0 0 0 0 0
26 27 13 26 77 98 69 73 60 41 1 0 0 2 0 1 16 40 51 65 3 0 0 0 0 1 40 113 54 4 12 0 0 0 0 0 0 228 12 86 37 90 189 97 159 61 43 35 0 0 0 0 0 0
43 19 24 42 53 88 72 56 56 14 0 0 0 0 1 37 30 27 23 51 1 0 0 5 45 0 22 74 75 4 2 5 0 0 0 0 0 243 467 300 115 83 65 40 24 0 0 0 0 0 0 0 0 1
41 42 42 49 74 78 67 66 49 32 0 0 3 3 31 10 0 4 5 3 4 93 46 279 60 0 0 21 0 0 1 10 0 0 0 0 71 345 159 29 1 0 0 0 0 0 0 0 0 0 0 1 0 0
72 79 60 56 68 74 68 20 5 0 0 10 19 4 8 7 5 10 7 2 0 16 165 64 36 112 76 0 0 0 0 2 51 2 12 99 199 97 2 0 0 1 0 0 0 0 0 0 0 0 0 0 0 0
88 63 65 63 60 53 35 14 1 0 0 22 18 5 14 9 10 0 3 5 9 11 84 127 41 29 9 3 4 0 3 5 15 26 0 114 13 0 0 0 0 0 0 0 0 0 0 0 0 0 0 0 0 0
26 26 21 31 16 3 0 0 0 0 6 30 16 9 6 10 0 3 1 31 32 11 30 64 74 47 23 0 0 0 11 2 0 6 81 2 1 1 0 0 0 0 0 0 0 0 0 0 0 0 0 0 0 0
4 4 49 8 0 0 0 0 0 9 19 24 14 1 4 9 3 2 7 1 4 2 17 24 39 53 2 1 0 0 1 0 42 120 21 1 0 0 1 0 0 0 0 0 0 0 0 0 0 0 0 0 0 0
0 0 0 0 0 0 0 0 2 30 20 13 17 2 4 0 1 0 2 7 69 34 30 42 4 30 0 0 0 0 0 5 49 3 1 2 2 0 0 0 0 0 0 0 0 0 0 0 0 0 0 0 0 0
0 0 0 0 0 0 0 4 0 16 3 6 7 0 0 2 0 1 8 28 12 2 24 5 20 0 0 1 4 0 8 8 17 1 2 0 0 0 0 0 0 0 0 0 0 0 0 0 0 0 0 0 0 0
0 0 0 0 0 0 1 1 0 11 4 1 0 0 0 1 1 9 0 0 0 0 0 8 6 1 1 0 2 3 50 10 1 1 1 1 0 0 0 0 0 0 0 0 0 0 0 0 0 0 0 0 0 0
0 0 0 0 0 0 0 0 0 0 0 0 0 0 0 2 11 0 0 0 0 2 1 2 2 0 0 1 1 71 1 5 5 0 0 0 0 0 0 0 0 0 0 0 0 0 0 0 0 0 0 0 0 0
0 0 0 0 0 0 0 0 0 0 0 0 0 0 16 38 4 2 0 0 2 2 2 2 1 1 0 0 1 0 0 0 0 0 0 0 0 0 0 0 0 0 0 0 0 0 0 0 0 0 0 0 0 0
0 0 0 1 19 0 0 0 0 0 0 0 0 0 1 14 2 0 0 1 1 1 1 3 2 0 0 0 0 0 0 0 0 0 0 0 0 0 0 0 0 0 0 0 0 0 0 0 0 0 0 0 0 0
0 0 14 23 16 2 1 0 0 0 0 1 0 1 6 7 0 0 0 1 0 0 1 0 0 0 0 0 0 0 0 0 0 0 0 0 0 0 0 0 0 0 0 0 0 0 0 0 0 0 0 0 0 0
5 0 1 0 4 12 7 3 2 3 2 0 2 0 0 0 0 0 1 0 1 0 1 0 0 0 0 0 0 0 0 0 0 0 0 0 0 0 0 0 0 0 0 0 0 0 0 0 0 0 0 0 0 0
1 0 0 0 0 3 14 13 12 2 0 1 0 0 0 0 0 0 0 0 0 0 0 0 0 0 0 0 0 0 0 0 0 0 0 0 0 0 0 0 0 0 0 0 0 0 0 0 0 0 0 0 0 0
0 11 2 0 8 6 2 0 0 1 14 19 1 0 0 0 0 0 0 0 0 0 0 0 0 0 0 0 0 0 0 0 0 0 0 0 0 0 0 0 0 0 0 0 0 0 0 0 0 0 0 0 0 0
0 0 1 0 0 0 0 0 0 0 0 8 20 2 7 1 0 0 0 0 0 0 0 0 0 0 0 0 0 0 0 0 0 0 0 0 0 0 0 0 0 0 0 0 0 0 0 0 0 0 0 0 0 0
1 0 0 0 0 0 0 0 0 0 0 0 0 0 0 0 0 0 0 0 0 0 0 0 0 0 0 0 0 0 0 0 0 0 0 0 0 0 0 0 0 0 0 0 0 0 0 0 0 0 0 0 0 0
0 0 0 0 0 0 0 0 0 0 0 0 0 0 0 0 0 0 0 0 0 0 0 0 0 0 0 0 0 0 0 0 0 0 0 0 0 0 0 0 0 0 0 0 0 0 0 0 0 0 0 0 0 0
0 0 0 0 1 0 0 0 0 0 0 0 0 0 0 0 0 0 0 0 0 0 0 0 0 0 0 0 0 0 0 0 0 0 0 0 0 0 0 0 0 0 0 0 0 0 0 0 0 0 0 0 0 0
1 0 0 1 0 0 0 0 0 0 0 0 0 0 0 0 0 0 0 0 0 0 0 0 0 0 0 0 0 0 0 0 0 0 0 0 0 0 0 0 0 0 0 0 0 0 0 0 0 0 0 0 0 0
1 0 4 2 1 1 0 0 0 0 0 0 0 0 0 0 0 0 0 0 0 0 0 0 0 0 0 0 0 0 0 0 0 0 0 0 0 0 0 0 0 0 0 0 0 0 0 0 0 0 0 0 0 0
CIN
-5 -5 -11 -6 -0 -0 -0 -0 -0 -1 -0 -0 -0 -2 -0 -0 -0 -1 -0 -0 -0 -0 -0 -0 -0 -0 -0 -0 -0 -0 -0 -0 -0 -0 -0 -0 -0 -0 -0 -0 -0 -0 -0 -0 -0 -0 -0 -30 -164 -70 -0 -22 -0 -0
-9 -9 -8 -8 -5 -1 -0 -0 -0 -0 -1 -0 -0 -0 -0 -0 -0 -1 -0 -0 -0 -0 -0 -0 -0 -0 -0 -0 -0 -0 -0 -0 -0 -0 -0 -0 -0 -0 -0 -0 -0 -0 -0 -0 -0 -0 -0 -0 -57 -31 -55 -38 -0 -225
-8 -14 -13 -6 -5 -7 -0 -0 -0 -0 -0 -0 -0 -0 -0 -0 -0 -0 -0 -0 -0 -0 -0 -0 -0 -0 -0 -0 -0 -0 -0 -0 -0 -0 -0 -0 -0 -0 -0 -0 -0 -0 -0 -0 -13 -26 -0 -0 -0 -0 -42 -292 -283 -283
-13 -11 -6 -11 -9 -3 -0 -0 -1 -0 -0 -0 -0 -0 -0 -0 -0 -0 -1 -0 -0 -0 -0 -0 -0 -0 -0 -0 -0 -0 -0 -0 -0 -0 -0 -0 -0 -0 -0 -0 -0 -0 -0 -349 -186 -440 -363 -353 -157 -351 -263 -297 -287 -271
-12 -10 -14 -10 -3 -0 -0 -0 -0 -0 -0 -0 -0 -0 -0 -0 -0 -0 -0 -0 -0 -0 -0 -0 -0 -0 -0 -0 -0 -0 -0 -0 -0 -0 -0 -0 -0 -0 -0 -0 -217 -0 -415 -243 -238 -392 -82 -304 -0 -294 -237 -278 -274 -309
-9 -11 -10 -4 -1 -0 -0 -0 -0 -0 -0 -0 -0 -0 -0 -0 -1 -0 -0 -0 -0 -0 -0 -0 -0 -0 -0 -0 -0 -0 -0 -0 -0 -0 -0 -0 -0 -0 -169 -257 -351 -0 -0 -0 -259 -16 -7 -1 -394 -279 -274 -264 -297 -346
-10 -15 -8 -4 -9 -3 -4 -3 -3 -0 -0 -0 -0 -0 -0 -0 -0 -0 -0 -0 -0 -0 -0 -4 -12 -125 -71 -157 -11 -0 -0 -0 -0 -0 -0 -0 -0 -0 -0 -194 -277 -0 -0 -313 -0 -22 -296 -330 -301 -366 -381 -332 -374 -373
-14 -7 -4 -6 -3 -9 -10 -7 -6 -8 -5 -0 -0 -0 -0 -0 -0 -0 -0 -0 -0 -0 -0 -30 -37 -87 -73 -105 -187 -0 -0 -0 -0 -0 -0 -0 -0 -0 -0 -0 -0 -0 -112 -194 -0 -0 -248 -253 -469 -453 -469 -34 -0 -0
-1 -0 -1 -2 -7 -13 -17 -15 -16 -18 -13 -6 -0 -0 -0 -0 -0 -0 -0 -0 -0 -0 -0 -50 -48 -46 -151 -107 -168 -0 -0 -0 -0 -0 -0 -0 -0 -0 -169 -268 -0 -63 -217 -418 -474 -469 -438 -448 -447 -353 -0 -0 -0 -0
-1 -1 -1 -2 -5 -3 -7 -15 -16 -9 -4 -1 -0 -0 -0 -0 -0 -15 -0 -0 -6 -0 -0 -0 -0 -118 -28 -199 -114 -1 -1 -0 -6 -0 -0 -0 -0 -1 -0 -271 -0 -391 -393 -390 -376 -358 -419 -433 -0 -0 -0 -0 -0 -0
-1 -1 -1 -1 -0 -0 -6 -4 -7 -5 -27 -0 -0 -3 -0 -5 -0 -0 -0 -0 -0 -0 -0 -0 -0 -39 -107 -105 -82 -164 -40 -0 -0 -0 -0 -0 -0 -101 -381 -299 -435 -387 -375 -386 -328 -430 -337 -376 -0 -0 -0 -0 -0 -0
-0 -1 -2 -1 -3 -2 -6 -7 -13 -34 -0 -0 -0 -0 -0 -0 -0 -0 -0 -9 -5 -5 -0 -117 -90 -72 -80 -120 -92 -120 -118 -109 -0 -0 -0 -0 -0 -315 -283 -342 -404 -453 -463 -456 -423 -0 -0 -0 -0 -0 -0 -0 -0 -0
-1 -1 -1 -2 -1 -4 -10 -11 -10 -14 -4 -0 -0 -0 -0 -1 -0 -0 -1 -37 -61 -95 -172 -71 -101 -0 -0 -92 -18 -0 -140 -132 -0 -0 -0 -0 -209 -232 -329 -456 -82 -0 -0 -0 -0 -0 -0 -0 -0 -0 -0 -0 -0 -0
-9 -6 -7 -7 -6 -5 -8 -20 -24 -0 -0 -2 -0 -0 -0 -0 -0 -0 -0 -0 -0 -184 -141 -158 -187 -93 -89 -0 -0 -0 -73 -20 -96 -11 -48 -195 -207 -272 -186 -0 -0 -0 -0 -0 -0 -0 -0 -0 -0 -0 -0 -0 -0 -0
-18 -22 -12 -15 -12 -12 -12 -14 -4 -0 -0 -0 -0 -0 -0 -0 -0 -0 -0 -0 -33 -195 -148 -99 -117 -132 -48 -40 -22 -0 -58 -80 -75 -86 -0 -209 -169 -0 -0 -0 -0 -0 -0 -0 -0 -0 -0 -0 -0 -0 -0 -0 -0 -0
-27 -29 -23 -17 -13 -14 -0 -0 -0 -0 -3 -0 -0 -0 -4 -0 -0 -0 -0 -85 -127 -191 -206 -109 -60 -58 -55 -0 -0 -0 -107 -40 -0 -171 -209 -30 -0 -0 -0 -0 -0 -0 -0 -0 -0 -0 -0 -0 -0 -0 -0 -0 -0 -0
-58 -15 -2 -22 -0 -0 -0 -0 -0 -6 -0 -0 -0 -10 -0 -0 -0 -0 -0 -56 -178 -154 -89 -46 -35 -22 -1 -20 -0 -0 -43 -4 -192 -163 -214 -0 -0 -0 -0 -0 -0 -0 -0 -0 -0 -0 -0 -0 -0 -0 -0 -0 -0 -0
-0 -0 -0 -0 -0 -0 -0 -0 -12 -1 -0 -1 -0 -13 -0 -0 -0 -0 -3 -139 -107 -117 -71 -18 -42 -57 -0 -0 -0 -0 -0 -125 -153 -210 -0 -0 -0 -0 -0 -0 -0 -0 -0 -0 -0 -0 -0 -0 -0 -0 -0 -0 -0 -0
-0 -0 -0 -0 -0 -0 -0 -0 -0 -1 -1 -9 -5 -0 -0 -1 -0 -0 -118 -119 -176 -122 -118 -29 -69 -0 -0 -52 -44 -0 -50 -154 -136 -0 -58 -0 -0 -0 -0 -0 -0 -0 -0 -0 -0 -0 -0 -0 -0 -0 -0 -0 -0 -0
-0 -0 -0 -0 -0 -0 -0 -6 -0 -4 -12 -13 -0 -0 -0 -0 -0 -31 -0 -0 -0 -0 -0 -41 -41 -0 -0 -0 -114 -33 -68 -141 -0 -0 -0 -0 -0 -0 -0 -0 -0 -0 -0 -0 -0 -0 -0 -0 -0 -0 -0 -0 -0 -0
-0 -0 -0 -0 -0 -0 -0 -0 -5 -5 -0 -0 -0 -0 -0 -10 -7 -0 -0 -0 -0 -0 -0 -0 -0 -0 -0 -0 -2 -76 -68 -100 -107 -2 -0 -0 -0 -0 -0 -0 -0 -0 -0 -0 -0 -0 -0 -0 -0 -0 -0 -0 -0 -0
-0 -0 -0 -0 -0 -0 -0 -0 -0 -2 -0 -0 -0 -0 -15 -1 -3 -0 -0 -0 -0 -0 -0 -0 -0 -0 -0 -0 -0 -0 -0 -0 -0 -0 -0 -0 -0 -0 -0 -0 -0 -0 -0 -0 -0 -0 -0 -0 -0 -0 -0 -0 -0 -0
-0 -0 -0 -0 -0 -3 -0 -0 -0 -0 -0 -0 -0 -0 -4 -5 -3 -0 -0 -0 -0 -0 -0 -0 -0 -0 -0 -0 -0 -0 -0 -0 -0 -0 -0 -0 -0 -0 -0 -0 -0 -0 -0 -0 -0 -0 -0 -0 -0 -0 -0 -0 -0 -0
-0 -0 -0 -0 -0 -3 -11 -0 -0 -0 -0 -3 -0 -6 -2 -1 -0 -0 -0 -0 -0 -0 -0 -0 -0 -0 -0 -0 -0 -0 -0 -0 -0 -0 -0 -0 -0 -0 -0 -0 -0 -0 -0 -0 -0 -0 -0 -0 -0 -0 -0 -0 -0 -0
-0 -0 -0 -0 -0 -0 -0 -0 -16 -0 -0 -0 -2 -0 -0 -0 -0 -0 -0 -0 -0 -0 -0 -0 -0 -0 -0 -0 -0 -0 -0 -0 -0 -0 -0 -0 -0 -0 -0 -0 -0 -0 -0 -0 -0 -0 -0 -0 -0 -0 -0 -0 -0 -0
-0 -0 -0 -5 -0 -2 -4 -6 -0 -4 -0 -16 -21 -0 -0 -0 -0 -0 -0 -0 -0 -0 -0 -0 -0 -0 -0 -0 -0 -0 -0 -0 -0 -0 -0 -0 -0 -0 -0 -0 -0 -0 -0 -0 -0 -0 -0 -0 -0 -0 -0 -0 -0 -0
-0 -8 -20 -0 -24 -15 -8 -0 -0 -0 -9 -7 -38 -0 -0 -0 -0 -0 -0 -0 -0 -0 -0 -0 -0 -0 -0 -0 -0 -0 -0 -0 -0 -0 -0 -0 -0 -0 -0 -0 -0 -0 -0 -0 -0 -0 -0 -0 -0 -0 -0 -0 -0 -0
-4 -12 -2 -3 -0 -0 -0 -0 -0 -0 -2 -27 -6 -17 -17 -4 -0 -0 -0 -0 -0 -0 -0 -0 -0 -0 -0 -0 -0 -0 -0 -0 -0 -0 -0 -0 -0 -0 -0 -0 -0 -0 -0 -0 -0 -0 -0 -0 -0 -0 -0 -0 -0 -0
-29 -0 -0 -30 -0 -0 -0 -0 -0 -0 -0 -0 -0 -0 -0 -0 -0 -0 -0 -0 -0 -0 -0 -0 -0 -0 -0 -0 -0 -0 -0 -0 -0 -0 -0 -0 -0 -0 -0 -0 -0 -0 -0 -0 -0 -0 -0 -0 -0 -0 -0 -0 -0 -0
-0 -0 -0 -18 -14 -8 -0 -0 -0 -0 -0 -0 -0 -0 -0 -0 -0 -0 -0 -0 -0 -0 -0 -0 -0 -0 -0 -0 -0 -0 -0 -0 -0 -0 -0 -0 -0 -0 -0 -0 -0 -0 -0 -0 -0 -0 -0 -0 -0 -0 -0 -0 -0 -0
-0 -0 -61 -0 -21 -0 -0 -0 -0 -0 -0 -0 -0 -0 -0 -0 -0 -0 -0 -0 -0 -0 -0 -0 -0 -0 -0 -0 -0 -0 -0 -0 -0 -0 -0 -0 -0 -0 -0 -0 -0 -0 -0 -0 -0 -0 -0 -0 -0 -0 -0 -0 -0 -0
-49 -17 -0 -24 -2 -0 -0 -0 -0 -0 -0 -0 -0 -0 -0 -0 -0 -0 -0 -0 -0 -0 -0 -0 -0 -0 -0 -0 -0 -0 -0 -0 -0 -0 -0 -0 -0 -0 -0 -0 -0 -0 -0 -0 -0 -0 -0 -0 -0 -0 -0 -0 -0 -0
-20 -45 -54 -41 -24 -19 -0 -0 -0 -22 -39 -4 -0 -0 -0 -0 -0 -0 -0 -0 -0 -0 -0 -0 -0 -0 -0 -0 -0 -0 -0 -0 -0 -0 -0 -0 -0 -0 -0 -0 -0 -0 -0 -0 -0 -0 -0 -0 -0 -0 -0 -0 -0 -0
Wind_Speed
10 11 10 10 10 10 10 9 8 8 9 9 10 8 9 10 10 4 5 3 1 2 6 6 6 6 5 1 2 6 9 4 6 4 4 4 3 5 4 6 8 7 7 4 3 5 2 5 2 5 7 3 6 4
10 10 10 9 10 10 10 10 9 9 9 9 8 9 9 9 8 5 3 3 3 4 7 5 14 16 13 13 1 3 4 5 3 4 1 3 2 2 3 3 2 2 7 8 6 7 4 2 4 5 6 7 3 7
10 11 10 10 11 8 10 12 9 10 11 9 9 9 9 9 8 4 3 3 3 3 5 3 9 13 9 17 10 4 4 3 5 2 3 4 3 4 4 4 4 3 3 6 5 5 3 6 6 6 5 10 8 6
11 11 10 7 8 9 10 11 9 9 10 10 9 10 10 10 9 7 2 2 1 3 3 8 5 6 4 8 15 12 10 7 3 2 4 3 3 3 4 4 4 4 4 7 3 3 6 5 6 8 12 12 13 10
11 10 8 8 10 10 10 10 9 9 9 9 10 10 11 11 9 6 5 5 5 2 3 6 12 13 11 12 14 13 9 4 2 4 2 3 1 4 2 3 3 1 8 6 7 7 6 5 7 10 12 11 11 16
12 8 8 9 11 11 11 11 10 8 9 9 8 10 10 11 7 3 2 0 3 2 1 5 5 6 2 9 7 6 5 4 4 2 4 4 3 5 5 2 5 3 2 5 7 6 5 7 7 14 15 12 12 13
10 8 10 10 11 12 12 12 10 7 7 8 9 10 9 7 2 3 2 0 4 2 2 4 5 4 1 1 3 2 4 3 4 3 2 2 3 5 4 4 7 3 3 8 8 9 8 3 8 12 17 13 11 11
9 10 10 8 10 9 3 1 3 6 8 9 10 10 10 9 7 6 5 12 3 3 3 4 5 3 4 1 2 1 1 1 3 3 2 1 3 3 3 2 4 4 9 9 8 9 10 14 13 13 13 13 12 10
10 10 8 7 5 2 3 4 5 7 9 10 10 11 3 2 3 4 7 4 4 3 4 4 3 4 2 3 5 4 3 2 4 3 3 2 3 2 7 8 7 7 7 9 12 15 15 16 12 11 11 8 13 8
7 7 6 3 3 5 5 6 8 8 10 10 1 1 3 5 5 2 3 4 1 4 4 4 3 4 3 1 3 6 1 2 5 4 4 3 2 4 5 5 7 11 16 15 16 8 11 10 11 10 5 5 8 8
6 5 4 5 6 7 8 7 8 9 1 1 1 3 3 5 2 3 4 6 5 4 5 5 6 3 4 3 4 2 1 4 4 0 3 2 2 3 7 7 5 7 7 5 10 9 7 14 12 10 8 8 8 9
6 6 6 6 8 8 7 7 7 2 2 2 3 3 3 3 3 3 5 5 5 7 5 6 5 4 1 3 3 1 3 2 3 1 6 5 5 2 11 10 8 9 13 13 11 13 10 9 8 9 10 10 11 10
7 7 8 8 8 8 10 7 5 6 6 1 2 3 2 2 1 5 7 3 3 2 4 4 4 3 2 3 3 3 5 2 0 2 5 4 4 7 12 13 12 10 14 16 14 12 13 11 10 9 11 8 9 10
9 10 8 8 9 9 8 5 3 3 1 2 2 4 3 3 4 5 4 4 4 3 3 4 3 4 2 5 4 3 4 1 2 4 6 4 12 11 11 11 17 13 13 15 14 12 12 11 10 9 8 7 10 10
13 4 6 8 8 7 5 4 3 1 1 3 2 4 5 5 5 8 7 4 4 3 3 3 4 4 4 6 4 3 3 1 2 3 3 8 12 13 13 13 14 14 13 12 11 12 11 11 10 10 7 8 10 10
10 5 2 6 4 3 4 4 1 1 2 3 4 4 4 6 5 4 5 3 2 2 1 3 4 4 3 4 3 4 4 4 3 2 4 9 10 10 11 11 10 11 12 13 10 10 10 11 11 9 7 8 7 8
7 1 7 5 7 8 4 0 1 3 3 4 4 5 7 5 9 4 2 4 3 2 3 3 3 3 3 2 3 4 4 2 2 4 6 9 14 13 10 10 10 12 12 12 12 10 10 8 8 9 9 4 7 7
3 3 7 8 6 3 0 2 2 4 5 5 3 6 3 4 4 4 3 3 1 3 3 2 2 2 4 4 1 2 2 2 5 7 10 13 13 12 9 12 11 12 12 11 10 8 8 8 7 5 7 6 6 6
5 6 10 9 3 2 2 3 3 4 5 3 4 4 3 2 3 4 3 2 1 3 7 3 3 2 1 1 2 2 0 2 6 6 8 10 12 14 10 11 11 12 12 10 9 6 5 5 5 5 5 4 5 4
13 12 11 6 2 1 3 4 3 4 4 3 3 4 3 2 3 1 1 4 3 3 5 3 2 2 1 1 0 2 4 7 9 11 9 7 6 11 10 11 9 10 8 7 6 6 5 4 2 4 5 5 5 4
6 1 3 4 2 3 3 3 3 3 4 3 3 4 3 3 3 5 5 5 4 4 3 3 2 3 3 1 1 4 6 5 5 8 11 10 7 8 8 6 8 5 5 4 5 4 5 5 5 4 5 4 4 4
3 2 0 2 2 2 3 3 3 4 3 3 4 3 3 3 3 4 3 5 3 2 2 2 3 3 4 4 4 6 8 9 8 8 9 12 9 7 6 4 5 4 5 5 5 5 4 4 5 5 5 4 4 4
5 1 1 2 3 1 6 2 2 3 3 5 5 3 3 3 3 2 3 2 1 2 2 3 3 5 7 7 8 9 7 8 8 6 8 7 7 6 6 5 4 6 6 2 3 5 5 5 5 5 5 4 3 2
1 2 2 2 1 3 3 3 2 2 3 3 3 3 3 2 3 3 3 2 2 3 4 6 4 4 5 7 5 5 4 3 7 7 6 9 7 5 5 5 3 3 5 5 5 5 4 4 5 5 4 3 3 3
2 4 1 4 3 3 3 2 2 2 2 2 2 2 3 3 2 2 1 2 2 3 3 3 4 4 4 3 3 3 4 4 8 9 4 6 7 4 4 4 3 3 5 7 4 6 5 5 5 5 5 4 5 5
1 2 2 4 3 3 4 3 3 2 2 2 1 2 2 2 3 3 2 1 0 1 1 2 2 3 4 3 3 4 2 2 5 5 2 4 5 5 5 5 4 1 3 4 7 6 6 5 5 6 5 6 7 5
3 2 1 1 1 3 3 2 3 2 2 3 1 2 2 4 4 3 1 1 1 1 2 3 3 3 4 4 2 3 3 4 5 4 3 4 3 4 7 7 6 5 6 6 6 6 7 6 5 4 4 3 5 5
3 1 2 4 2 0 2 4 4 4 3 3 2 4 3 2 0 1 0 1 3 4 4 3 3 3 3 2 3 4 4 4 6 5 7 7 6 5 4 3 2 8 6 6 6 5 5 6 6 6 5 3 2 3
2 1 1 3 2 2 1 1 2 2 2 2 2 1 1 0 1 2 2 3 3 4 4 4 2 3 4 4 3 3 3 3 5 7 7 3 3 3 2 3 4 3 4 5 4 7 8 6 6 5 5 4 3 2
3 2 1 2 2 3 3 2 3 3 1 1 3 2 3 3 2 2 4 3 3 3 3 3 3 4 3 3 0 2 2 1 3 4 5 6 6 4 5 5 4 4 3 3 4 3 4 3 3 2 2 3 3 3
1 1 2 1 2 2 3 3 3 3 4 5 4 5 2 2 3 1 3 4 4 3 4 2 2 3 4 4 4 2 3 3 6 8 7 3 5 6 6 6 5 4 4 5 4 3 2 1 0 2 4 6 8 5
1 1 0 2 2 4 3 3 2 3 4 4 4 3 4 4 2 4 2 3 3 4 6 4 5 6 7 5 4 4 4 4 4 4 7 4 4 5 5 5 4 4 5 5 5 4 3 4 4 2 4 6 6 4
1 1 0 2 3 1 2 2 2 2 2 2 2 1 1 3 3 4 2 2 3 5 5 6 8 6 7 8 7 5 5 3 5 6 9 9 10 8 4 4 4 5 6 5 4 4 5 4 5 6 5 7 7 6
Wind_Direction
301 293 288 280 285 290 289 277 277 285 300 316 322 332 331 333 342 8 272 246 204 282 279 252 266 276 321 263 257 305 335 331 339 71 128 197 158 222 105 164 174 150 131 168 95 92 200 200 60 168 188 153 149 111
295 298 286 276 275 276 284 289 274 270 278 292 314 322 324 333 337 7 288 327 327 212 251 249 258 251 227 231 175 295 232 304 298 346 356 125 150 96 141 178 17 112 170 160 156 202 262 331 147 113 123 137 112 102
296 299 287 277 274 272 276 289 257 269 265 275 289 303 313 320 326 330 260 292 277 266 276 313 252 251 218 225 188 185 275 270 346 225 268 253 119 126 139 226 112 39 138 92 91 325 36 78 68 86 103 97 95 108
297 298 285 295 295 287 281 289 256 268 279 264 280 291 303 309 311 306 229 257 297 272 272 279 296 288 241 166 185 209 245 309 280 225 232 236 136 157 189 159 124 199 91 131 77 68 79 37 93 116 99 98 93 84
293 295 299 291 286 284 282 281 259 269 278 268 279 289 298 304 307 294 239 224 226 204 270 284 309 273 210 174 191 205 222 242 286 311 265 242 169 100 18 72 14 170 162 131 198 194 144 177 125 125 107 109 108 105
296 286 276 281 284 281 275 270 268 268 290 280 279 291 298 302 342 351 275 272 215 211 199 292 277 283 69 206 191 142 190 216 236 196 263 281 269 100 93 99 277 289 193 171 143 156 119 98 87 115 109 116 117 113
304 303 288 272 281 275 268 257 251 259 280 285 288 291 294 295 113 209 243 101 310 346 214 273 266 241 180 180 34 54 188 215 217 244 266 275 312 79 98 137 222 286 120 90 118 112 73 44 124 117 111 112 111 103
313 303 294 279 288 283 252 250 269 279 286 289 288 287 284 279 273 273 247 229 177 258 237 255 253 268 162 178 26 28 118 318 260 277 291 296 352 64 91 233 150 116 94 66 72 81 113 113 113 110 116 123 111 115
308 309 302 284 268 255 257 268 285 291 290 290 292 299 343 131 208 237 131 158 190 223 272 235 234 179 220 159 113 18 12 359 297 274 288 58 337 92 191 154 172 173 120 127 94 107 120 120 126 122 123 119 122 129
312 320 312 303 290 275 279 282 286 292 290 289 0 38 269 216 235 267 169 178 189 211 231 247 278 270 53 208 82 100 104 261 217 236 331 74 262 276 222 175 136 132 133 129 106 102 120 118 136 149 158 112 123 122
316 321 326 326 319 300 273 281 295 313 305 80 224 238 305 293 192 201 207 211 183 216 200 222 194 187 243 119 119 180 205 220 114 216 88 339 262 252 110 95 89 124 118 64 107 104 132 146 150 134 108 91 95 106
293 292 295 301 307 310 317 291 296 323 268 241 265 286 274 241 210 250 227 194 190 212 178 162 183 175 152 112 122 228 236 336 118 120 124 224 252 126 122 105 89 100 105 92 100 104 93 90 95 105 113 106 111 118
289 285 286 290 302 304 310 312 296 264 296 252 217 238 212 178 189 218 210 213 226 243 170 154 125 136 113 60 95 11 13 359 75 140 194 196 173 136 124 112 96 92 97 97 93 89 88 84 84 101 110 104 110 108
285 266 268 280 284 285 300 304 317 348 291 264 255 281 233 223 238 263 351 310 285 260 318 123 105 111 116 54 36 39 334 305 175 154 197 175 160 132 122 117 110 110 114 113 108 103 100 100 92 82 86 98 105 96
343 282 277 287 294 277 293 317 311 57 252 263 256 246 237 242 261 278 286 259 233 247 175 89 72 93 109 134 200 192 242 0 228 205 197 158 146 139 130 125 125 121 114 106 115 115 110 105 97 87 77 87 92 94
332 326 300 301 331 331 307 323 243 223 243 241 229 256 252 278 274 310 299 295 277 263 129 57 103 86 90 129 130 190 155 213 256 233 134 129 124 127 120 112 112 121 118 115 107 106 106 102 105 102 86 86 91 104
328 286 346 351 331 302 270 263 272 239 253 247 227 237 245 251 274 267 264 242 291 79 104 51 30 68 108 95 176 169 217 215 163 110 121 135 134 130 124 124 128 122 116 104 102 104 103 102 100 98 98 82 95 100
243 275 330 326 341 333 183 194 248 246 252 246 245 260 237 241 266 284 255 273 180 108 91 157 256 193 173 159 161 194 149 230 107 131 131 121 123 127 126 121 115 109 109 109 115 111 106 106 109 114 116 121 103 97
259 275 287 294 305 302 265 207 201 263 255 214 250 265 268 239 258 265 282 298 230 125 108 165 165 153 145 12 22 352 263 98 117 117 105 116 122 118 109 112 111 115 119 125 126 126 130 137 140 137 133 128 123 133
283 278 267 238 189 279 282 265 199 258 294 307 287 320 299 314 302 266 63 13 28 41 48 45 42 54 80 12 300 193 125 132 135 118 111 113 114 117 132 131 131 130 120 111 108 115 112 93 95 129 137 143 137 160
327 276 71 143 212 214 263 298 283 255 301 309 299 328 318 321 8 10 22 351 52 32 30 0 331 297 280 218 315 120 105 124 127 131 134 123 120 124 120 113 119 114 123 132 137 146 137 161 163 162 153 175 189 180
264 277 326 215 270 225 251 237 253 293 300 284 319 347 353 0 20 22 345 33 45 354 351 303 310 329 45 41 39 78 102 97 96 89 93 111 114 118 116 115 109 122 132 142 136 137 135 142 141 144 136 148 135 146
303 195 253 241 274 273 267 344 296 319 317 313 336 22 18 25 7 3 56 36 45 326 316 319 346 16 60 55 67 64 66 102 99 97 98 99 98 100 100 96 111 118 121 77 111 132 145 154 142 138 143 136 131 129
290 286 281 300 289 283 321 302 300 296 291 339 358 27 25 357 344 39 44 38 345 323 5 6 14 74 67 57 60 71 58 68 93 76 99 111 104 92 109 103 98 100 126 128 119 114 122 143 149 144 154 141 162 180
315 296 235 274 218 248 249 234 247 291 346 340 1 358 342 0 69 68 39 3 21 359 16 15 41 37 90 66 48 58 45 120 109 103 62 101 109 99 86 74 84 122 141 123 145 149 151 144 155 157 165 177 192 200
329 238 155 334 316 344 339 355 8 348 304 323 353 299 319 61 53 29 356 330 38 210 134 81 84 75 63 55 108 104 89 91 98 96 119 139 141 131 122 131 129 177 220 160 141 153 160 169 178 173 182 204 203 194
330 319 345 45 254 293 298 286 275 277 315 350 23 1 24 53 13 320 286 252 128 114 125 123 116 107 128 142 105 88 78 61 92 96 88 108 125 136 149 148 160 198 167 166 167 161 163 171 176 165 189 217 216 199
248 308 330 293 300 211 288 330 351 12 342 345 346 8 39 56 128 272 241 61 104 99 85 82 84 91 74 31 73 82 56 60 89 88 81 61 45 51 91 109 110 137 142 151 155 145 154 159 150 158 161 164 202 201
270 221 290 311 296 273 250 269 288 257 232 139 114 105 152 295 170 117 123 126 102 100 102 105 66 63 52 30 15 28 82 101 99 83 86 87 34 352 43 88 93 99 115 119 127 145 160 156 168 167 167 179 207 240
278 171 319 300 349 348 288 218 281 284 311 142 127 71 35 21 15 37 103 102 113 122 127 131 152 130 144 134 118 336 359 99 110 137 159 188 206 196 166 172 170 162 139 125 129 107 88 94 100 66 35 359 331 304
146 45 327 1 351 282 280 298 7 17 29 37 28 76 61 340 355 81 158 171 148 133 133 166 201 200 172 186 181 184 268 236 217 224 226 216 179 180 178 180 182 170 170 166 165 182 179 110 266 321 351 308 297 276
110 239 5 10 313 301 359 52 45 53 17 41 13 32 19 42 16 296 257 119 127 169 209 181 193 231 214 220 216 229 226 175 182 204 181 175 169 165 158 162 178 191 194 193 196 210 238 247 266 217 290 288 263 234
82 87 314 10 349 36 336 79 51 53 41 51 357 249 184 160 223 253 278 190 159 160 183 207 214 213 192 184 193 170 158 155 145 151 140 133 134 139 144 162 169 166 160 148 160 174 196 234 240 226 213 238 251 250